Weather History for KNID - March, 2013

Change the Weather History Date:

Wednesday, March 20, 2013

  Actual Average Record
Temperature  
Mean Temperature 70 °F -  
Max Temperature 79 °F 72 °F 90 °F (1997)
Min Temperature 63 °F 45 °F 30 °F (2012)
Cooling Degree Days 6    
Growing Degree Days 20 (Base 50)    
Moisture  
Dew Point 31 °F    
Average Humidity 25    
Maximum Humidity 34    
Minimum Humidity 16    
Precipitation  
Precipitation 0.00 in - - ()
Sea Level Pressure  
Sea Level Pressure 29.86 in    
Wind  
Wind Speed 18 mph (SW)    
Max Wind Speed 28 mph    
Max Gust Speed 37 mph    
Visibility 10 miles    
Events      
Averages and records for this station are not official NWS values.
T = Trace of Precipitation, MM = Missing Value Source: NWS Daily Summary

Daily Weather History Graph

Daily Weather History Graph

Search for Another Location

Airport or City:

Trip Planner

Search our weather history database for the weather conditions in past years. The results will help you decide how hot, cold, wet, or windy it might be!

Date:

Astronomy

Mar. 20, 2013 Rise Set
Actual Time 6:53 AM PDT 7:02 PM PDT
Civil Twilight 6:28 AM PDT 7:28 PM PDT
Nautical Twilight 5:58 AM PDT 7:58 PM PDT
Astronomical Twilight 5:28 AM PDT 8:28 PM PDT
Moon 12:52 PM PDT (3/20) 2:26 AM PDT (3/20)
Length of Visible Light 12h 59m
Length of Day
12h 08m
First Quarter, 60% of the Moon is Illuminated
Mar 20
First Quarter
Mar 27
Full
Apr 2
Last Quarter
Apr 10
New
Apr 18
First Quarter

Hourly Weather History & Observations

Time (PDT) Temp. Dew Point Humidity Pressure Visibility Wind Dir Wind Speed Gust Speed Precip Events Conditions
12:56 AM 66.9 °F 33.1 °F 28% 29.93 in 10.0 mi Variable 3.5 mph - N/A   Clear
1:56 AM 66.9 °F 36.0 °F 32% 29.95 in 10.0 mi SW 23.0 mph 32.2 mph N/A   Clear
2:56 AM 66.0 °F 37.0 °F 34% 29.93 in 10.0 mi SSW 20.7 mph 29.9 mph N/A   Clear
3:56 AM 66.0 °F 37.0 °F 34% 29.90 in 10.0 mi SSW 24.2 mph 34.5 mph N/A   Clear
4:56 AM 66.0 °F 37.0 °F 34% 29.89 in 10.0 mi SSW 24.2 mph 31.1 mph N/A   Clear
5:56 AM 66.0 °F 36.0 °F 33% 29.88 in 10.0 mi SSW 25.3 mph 31.1 mph N/A   Mostly Cloudy
6:56 AM 64.9 °F 33.1 °F 31% 29.90 in 10.0 mi SSW 17.3 mph - N/A   Mostly Cloudy
7:56 AM 66.0 °F 30.0 °F 26% 29.91 in 10.0 mi SSW 20.7 mph 26.5 mph N/A   Mostly Cloudy
8:56 AM 68.0 °F 28.0 °F 22% 29.90 in 10.0 mi SW 20.7 mph 31.1 mph N/A   Overcast
9:56 AM 70.0 °F 25.0 °F 18% 29.90 in 10.0 mi SW 24.2 mph 36.8 mph N/A   Overcast
10:56 AM 73.0 °F 27.0 °F 18% 29.91 in 10.0 mi WSW 17.3 mph 25.3 mph N/A   Overcast
11:56 AM 73.9 °F 25.0 °F 16% 29.90 in 10.0 mi SSW 15.0 mph 25.3 mph N/A   Overcast
12:56 PM 77.0 °F 27.0 °F 16% 29.86 in 10.0 mi SW 19.6 mph 26.5 mph N/A   Overcast
1:56 PM 77.0 °F 27.0 °F 16% 29.84 in 10.0 mi WSW 9.2 mph - N/A   Overcast
2:56 PM 77.0 °F 30.0 °F 18% 29.81 in 10.0 mi WSW 27.6 mph 35.7 mph N/A   Overcast
3:56 PM 75.9 °F 30.9 °F 19% 29.81 in 10.0 mi WSW 25.3 mph 34.5 mph N/A   Overcast
4:56 PM 75.0 °F 30.9 °F 20% 29.80 in 10.0 mi SW 25.3 mph 33.4 mph N/A   Overcast
5:56 PM 73.0 °F 32.0 °F 22% 29.79 in 10.0 mi WSW 23.0 mph 34.5 mph N/A   Overcast
6:56 PM 71.1 °F 33.1 °F 25% 29.81 in 10.0 mi WSW 23.0 mph 32.2 mph N/A   Overcast
7:56 PM 70.0 °F 33.1 °F 26% 29.81 in 10.0 mi SW 16.1 mph 32.2 mph N/A   Mostly Cloudy
8:56 PM 69.1 °F 32.0 °F 25% 29.83 in 10.0 mi WSW 13.8 mph 26.5 mph N/A   Mostly Cloudy
9:56 PM 64.9 °F 30.9 °F 28% 29.83 in 10.0 mi SSW 16.1 mph 26.5 mph N/A   Scattered Clouds
10:56 PM 64.0 °F 30.9 °F 29% 29.83 in 10.0 mi SW 20.7 mph 28.8 mph N/A   Partly Cloudy
11:56 PM 63.0 °F 30.0 °F 29% 29.82 in 10.0 mi West 17.3 mph 23.0 mph N/A   Clear